TimeAEST,TemperatureF,Dew PointF,Humidity,Sea Level PressureIn,VisibilityMPH,Wind Direction,Wind SpeedMPH,Gust SpeedMPH,PrecipitationIn,Events,Conditions,WindDirDegrees,DateUTC
12:00 AM,63,59,83,30.08,19,WNW,4.6,,,,Partly Cloudy,300,2013-09-09 14:00:00
12:00 AM,62.6,59.0,88,30.06,6.2,WNW,4.6,-,N/A,,Scattered Clouds,300,2013-09-09 14:00:00
1:00 AM,63,59,81,30.07,,West,4.6,,,,,280,2013-09-09 15:00:00
1:00 AM,62.6,59.0,88,30.06,6.2,West,4.6,-,N/A,,Scattered Clouds,280,2013-09-09 15:00:00
2:00 AM,60.8,59.0,94,30.04,6.2,Calm,Calm,-,N/A,,Partly Cloudy,0,2013-09-09 16:00:00
2:30 AM,60.8,57.2,88,30.01,6.2,Calm,Calm,-,N/A,,Partly Cloudy,0,2013-09-09 16:30:00
3:00 AM,60,58,91,30.02,19,Calm,Calm,,,,Partly Cloudy,,2013-09-09 17:00:00
3:00 AM,60.8,59.0,94,30.01,6.2,Calm,Calm,-,N/A,,Partly Cloudy,0,2013-09-09 17:00:00
3:30 AM,60.8,59.0,94,30.01,6.2,Calm,Calm,-,N/A,,Scattered Clouds,0,2013-09-09 17:30:00
4:00 AM,60,58,90,30.02,,Calm,Calm,,,,,,2013-09-09 18:00:00
4:00 AM,59.0,57.2,94,30.01,6.2,Calm,Calm,-,N/A,,Mostly Cloudy,0,2013-09-09 18:00:00
4:30 AM,60.8,57.2,88,30.01,6.2,SW,1.2,-,N/A,Rain,Light Rain Showers,220,2013-09-09 18:30:00
5:00 AM,62.6,59.0,88,30.01,6.2,South,4.6,-,N/A,,Mostly Cloudy,170,2013-09-09 19:00:00
5:30 AM,60.8,59.0,94,30.01,6.2,SSW,4.6,-,N/A,,Scattered Clouds,200,2013-09-09 19:30:00
6:00 AM,60,58,89,30.03,19,SSW,4.6,,,,Partly Cloudy,200,2013-09-09 20:00:00
6:00 AM,59.0,57.2,94,30.01,6.2,SSW,4.6,-,N/A,,Mostly Cloudy,200,2013-09-09 20:00:00
6:30 AM,60.8,57.2,88,30.04,6.2,South,5.8,-,N/A,,Mostly Cloudy,190,2013-09-09 20:30:00
7:00 AM,63,59,83,30.05,,SSW,1.2,,,,,200,2013-09-09 21:00:00
7:00 AM,62.6,59.0,88,30.04,6.2,SSW,1.2,-,N/A,Rain,Light Rain Showers,200,2013-09-09 21:00:00
7:30 AM,64.4,60.8,88,30.04,6.2,North,2.3,-,N/A,,Mostly Cloudy,350,2013-09-09 21:30:00
8:00 AM,66.2,60.8,83,30.04,6.2,North,10.4,-,N/A,Rain,Light Rain Showers,350,2013-09-09 22:00:00
8:30 AM,68.0,59.0,73,30.04,6.2,NNW,6.9,-,N/A,,Mostly Cloudy,340,2013-09-09 22:30:00
9:00 AM,70,59,59,30.04,12,North,8.1,,,Rain,Light Rain Showers,0,2013-09-09 23:00:00
9:00 AM,69.8,59.0,68,30.04,6.2,North,8.1,-,N/A,,Mostly Cloudy,360,2013-09-09 23:00:00
9:30 AM,71.6,57.2,60,30.01,6.2,North,11.5,-,N/A,,Mostly Cloudy,10,2013-09-09 23:30:00
10:00 AM,72,58,53,30.02,,North,10.4,,,,,0,2013-09-10 00:00:00
10:00 AM,71.6,59.0,64,30.01,6.2,North,10.4,-,N/A,,Partly Cloudy,360,2013-09-10 00:00:00
10:30 AM,73.4,57.2,57,29.98,6.2,North,10.4,-,N/A,,Mostly Cloudy,360,2013-09-10 00:30:00
11:00 AM,73.4,59.0,61,29.98,6.2,NNE,13.8,-,N/A,,Mostly Cloudy,20,2013-09-10 01:00:00
11:30 AM,73.4,60.8,65,29.95,6.2,NNE,12.7,-,N/A,,Mostly Cloudy,20,2013-09-10 01:30:00
12:00 PM,70,59,60,29.95,22,NNE,17.3,,,,Partly Cloudy,30,2013-09-10 02:00:00
12:00 PM,69.8,59.0,68,29.95,6.2,NNE,17.3,-,N/A,,Mostly Cloudy,30,2013-09-10 02:00:00
12:30 PM,71.6,60.8,69,29.92,6.2,North,17.3,-,N/A,,Mostly Cloudy,10,2013-09-10 02:30:00
1:00 PM,71.6,60.8,69,29.92,6.2,North,18.4,-,N/A,,Mostly Cloudy,10,2013-09-10 03:00:00
1:30 PM,71.6,60.8,69,29.89,6.2,NNE,19.6,-,N/A,,Mostly Cloudy,20,2013-09-10 03:30:00
2:00 PM,73.4,60.8,65,29.89,6.2,NNE,19.6,-,N/A,,Mostly Cloudy,20,2013-09-10 04:00:00
2:30 PM,73.4,60.8,65,29.86,6.2,NNE,18.4,-,N/A,,Mostly Cloudy,20,2013-09-10 04:30:00
3:00 PM,73.4,62.6,69,29.86,6.2,NNE,20.7,-,N/A,,Mostly Cloudy,20,2013-09-10 05:00:00
3:30 PM,71.6,64.4,78,29.86,6.2,North,21.9,-,N/A,,Scattered Clouds,10,2013-09-10 05:30:00
4:00 PM,71,62,64,29.87,,North,19.6,,,,,10,2013-09-10 06:00:00
4:00 PM,69.8,60.8,73,29.86,6.2,North,19.6,-,N/A,,Scattered Clouds,10,2013-09-10 06:00:00
4:30 PM,69.8,60.8,73,29.86,6.2,North,17.3,-,N/A,,Scattered Clouds,10,2013-09-10 06:30:00
5:00 PM,68.0,62.6,83,29.86,6.2,North,16.1,-,N/A,,Scattered Clouds,10,2013-09-10 07:00:00
5:30 PM,68.0,62.6,83,29.86,6.2,North,13.8,-,N/A,,Scattered Clouds,10,2013-09-10 07:30:00
6:00 PM,68,61,73,29.87,19,North,15.0,,,,Partly Cloudy,0,2013-09-10 08:00:00
6:00 PM,68.0,60.8,78,29.86,6.2,North,15.0,-,N/A,,Scattered Clouds,360,2013-09-10 08:00:00
6:30 PM,68.0,60.8,78,29.86,-9999.0,North,17.3,-,N/A,,Clear,360,2013-09-10 08:30:00
7:00 PM,68,62,76,29.89,,North,15.0,,,,,0,2013-09-10 09:00:00
7:00 PM,68.0,62.6,83,29.89,-9999.0,North,15.0,-,N/A,,Clear,360,2013-09-10 09:00:00
7:30 PM,68.0,62.6,83,29.89,-9999.0,North,15.0,-,N/A,,Clear,360,2013-09-10 09:30:00
8:00 PM,68.0,62.6,83,29.89,-9999.0,North,15.0,-,N/A,,Clear,360,2013-09-10 10:00:00
8:30 PM,68.0,62.6,83,29.89,-9999.0,North,15.0,-,N/A,,Clear,360,2013-09-10 10:30:00
9:00 PM,67,62,77,29.91,19,North,16.1,,,,Partly Cloudy,0,2013-09-10 11:00:00
9:00 PM,66.2,60.8,83,29.89,-9999.0,North,16.1,-,N/A,,Clear,360,2013-09-10 11:00:00
9:30 PM,66.2,60.8,83,29.89,-9999.0,North,15.0,-,N/A,,Clear,360,2013-09-10 11:30:00
10:00 PM,66,61,79,29.91,,North,16.1,,,,,0,2013-09-10 12:00:00
10:00 PM,66.2,60.8,83,29.89,-9999.0,North,16.1,-,N/A,,Clear,360,2013-09-10 12:00:00
10:30 PM,66.2,60.8,83,29.89,-9999.0,North,11.5,-,N/A,,Clear,350,2013-09-10 12:30:00
11:00 PM,64.4,60.8,88,29.89,-9999.0,North,12.7,-,N/A,,Clear,360,2013-09-10 13:00:00
11:30 PM,64.4,60.8,88,29.89,-9999.0,North,15.0,-,N/A,,Clear,360,2013-09-10 13:30:00